Погода в Рославле

Погода в Рославле : погода сейчас, прогноз погоды и архив. Всё, что Вы хотите узнать о погоде в Рославле!

Хотите узнать прогноз погоды в Рославле? Тогда Вам сюда: Погода в Рославле

Поиск расширенной информации на нашем сайте:

Другие новости

Новости СМИ2

Главная страница сайта

Новости сайта

03.07.2017

Напоминаем, что на нашем специализированном сайте Метеоцентр.Азия вы можете получить высокодетализированные автоматические прогнозы погоды по пунктам России, СНГ и мира в авиационном формате (включающие направление и скорость ветра, видимость, явления погоды, количество и форму облачности, нижнюю и верхнюю границу облачности).

Рекомендуем: аренда дома одесса

Погода в Рославле - сегодня

Время (UTC), дата Ветер
(°,м/с) 
Видим.   Явления Облачность Т
(°С)
Тd
(°С)
f(%) Тe
(°С)
Pmin
(гПа)
dP
(гПа)
Po
(мм)
O2
(г/м3)
Тmin Tmax R s Состояние
почвы
21 14.06.18 050 (СВ) 9000 м  слаб. дождь  10/0 средняя 
[Ac As]
+14.7 +11.4 81 +18  1013.7  0.6  740  281           
03 15.06.18 100 (В) 8000 м  слаб. дождь  10/10 330 м 
[Frnb|Ns]
+11.7 +11 95 +14  1013.8  -0.5  740  284  +11.6    10     
06 15.06.18 100 (В) 8000 м  слаб. дождь  10/10 300 м 
[Frnb|Ns]
+12 +11.3 95 +14  1014.2  0.4  741  284  +11.6    13    влажная 
18 15.06.18 090 (В) 3500 м  дождь  10/10 300 м 
[Frnb|Ns]
+10.8 +10.2 96 +12  1015  -0.6  741  285    +12.9  13     
03 16.06.18 110 (В) 19000 м  в посл. час ливневой дождь  9/4 1000 м средняя 
[Cu med, cong|Ac cuf]
+10.8 +10 95 +11  1016.6  0.4  742  286  +10.4    23     
06 16.06.18 110 (В) 5{10}  20000 м  {ливн. осадки}  9/0 средняя 
[Ac trans]
+14.5 +9.8 73 +15  1017  0.7  743  282  +10.4    19    влажная 
09 16.06.18 110 (В) 5{10}  20000 м    3/0 верхняя 
[Cc]
+19.4 +11.9 62 +24  1016.5  743  277           
21 16.06.18 130 (ЮВ) 50000 м    8/0 средняя 
[Cu med, cong|Ac trans]
+14.4 +8.4 67 +15  1017.7  0.4  743  283           
00 17.06.18 110 (В) 50000 м    3/0 средняя 
[Ac trans]
+12.1 +8 76 +12  1018.5  0.6  744  286           
03 17.06.18 120 (ЮВ) 20000 м    6/0 средняя 
[Cu med, cong|Ac trans]
+13.9 +8.2 68 +14  1018.4  744  284  +11.6         
06 17.06.18 120 (ЮВ) 20000 м    3/0 средняя, верхняя 
[Ac trans|Ci fib]
+19.5 +10 54 +21  1017.6  -0.3  744  278  +11.6        влажная 
09 17.06.18 120 (ЮВ) 20000 м    3/0 верхняя 
[Ci fib]
+22.7 +10 44 +24  1017  -0.2  743  275           
12 17.06.18 130 (ЮВ) 20000 м    4/0 верхняя 
[Ci fib]
+24.4 +10.6 42 +27  1016.4  -0.5  743  273           
15 17.06.18 110 (В) 20000 м    8/0 верхняя 
[Ci]
+24.5 +11 43 +27  1015.6  -0.8  742  273           
21 17.06.18 130 (ЮВ) 50000 м    4/0 средняя, верхняя 
[Ac trans|Ci fib]
+16.5 +11 70 +20  1016.8  0.4  743  280           
00 18.06.18 120 (ЮВ) 50000 м    9/4 1000 м средняя, верхняя 
[Cu med, cong|Ac cuf|Ci fib]
+14.8 +10.1 73 +16  1016.7  -0.3  743  282           
03 18.06.18 120 (ЮВ) 20000 м    9/3 1000 м средняя, верхняя 
[Cu med, cong|Ac cuf|Cs]
+15.1 +10.8 75 +18  1016.6  0.1  743  282  +14.7         
06 18.06.18 080 (В) 20000 м    9/5 600 м средняя, верхняя 
[Cu Sc|Ac cuf|Cs]
+17.8 +13.1 74 +25  1016.4  0.1  743  278  +14.7        влажная 
09 18.06.18 220 (ЮЗ) 20000 м    9/5 600 м средняя 
[Cu Sc|Ac trans]
+21.5 +16 71 +32  1016.5  0.5  743  274           
12 18.06.18 230 (ЮЗ) 20000 м    9/4 1000 м средняя, верхняя 
[Cu med, cong|Ac trans|Cs]
+23.2 +15.6 62 +33  1016  -0.3  743  273           
15 18.06.18 240 (ЮЗ) 20000 м    9/5 1000 м верхняя 
[Cu med, cong|Cs]
+24.2 +16.4 62 +36  1015.1  -0.9  742  271           
21 18.06.18 240 (ЮЗ) 30000 м    5/0 средняя, верхняя 
[Ac trans|Ci fib]
+17.1 +16 93 +29  1015.9  0.5  742  278           
00 19.06.18 240 (ЮЗ) 28000 м    9/0 средняя 
[Ac trans]
+16.3 +15 92 +26  1015.9  0.1  742  279           
03 19.06.18 240 (ЮЗ) 17000 м    9/3 1000 м средняя, верхняя 
[Cu med, cong|Ac trans|Cc]
+16.3 +15.2 93 +26  1015.9  742  279  +15.1         
09 19.06.18 270 (З) 20000 м    6/3 1000 м верхняя 
[Cu hum|Cc]
+25.8 +14.7 50 +34  1014.6  -0.3  742  270           
Время (UTC), дата Ветер
(°,м/с) 
Видим.   Явления Облачность Т
(°С)
Тd
(°С)
f(%) Тe
(°С)
Pmin
(гПа)
dP
(гПа)
Po
(мм)
O2
(г/м3)
Тmin Tmax R s Состояние
почвы

Для получения пояснительной информации подведите курсор к названию столбца.

ПОГОДА в Рославле - архив

Всё, что Вы хотите узнать о погоде в Рославле - удобно и подробно!

Выберите нужную дату (начиная с 1 января 2015* года) и нажмите кнопку "Найти".
Будут отображены архивные сводки погоды по пункту Рославль, начиная с указанной даты.


Отображать данные в формате CSV (для использования в таблицах Excel)


Внимание! Наш архив погоды предназначен исключительно для личного некоммерческого использования в познавательных целях. Если Вам необходимы официальные справки о состоянии погоды (для производственных, юридических, коммерческих и т.п. целей), обращайтесь в органы Росгидромета.

*Примечание: данная дата относится к архиву по метеостанциям СССР (Россия, СНГ, Балтия).
Архив по метеостанциям Зарубежной Европы и Азии (кроме Китая) хранится 10 дней, по другим регионам земного шара (Китай, Африка, Америка, Австралия, Океания) - 1 день.

Рославль - район местоположения метеостанции


Название, широта, долгота, высота метеостанции:
Рославль 53.9°ш. 32.8°д. 224 м над ур. моря [Российская Федерация]

Дополнительная информация

В oтличие oт бoльшинства пoгoдных сайтoв мы публикуем пoдрoбную метеoинфoрмацию в детальнoм прoфессиoнальнoм фoрмате.

Характеристики температуры и влажнoсти вoздуха измеряются на высoте 2 м в тени вдали oт зданий и деревьев.
Скoрoсть ветра измеряется на высoте 10 м (на урoвне рoста челoвека скoрoсть ветра ниже в 1.5-2 раза). Если метеoстанция нахoдится в гoрoде или в лесу, тo скoрoсть ветра занижена на 2-4 м/с пo сравнению с oткрытым местoм. Скoрoсть ветра над акватoриями крупных рек и oзёр, а также на вершинах хoлмoв на 2-5 м/с выше, чем в oбычных услoвиях.
Атмoсфернoе давление в разных тoчках местнoсти мoжет значительнo oтличаться oт давления на метеoстанции, в зависимoсти oт услoвий рельефа (при пoдъёме на 10 м давление пoнижается примернo на 1 мм рт.ст.).